This demonstration page uses our WeatherBlox Daily Observations layout. Learn more.

Left ArrowRight Arrow

47.50024, -111.30081

Hourly Observations for October 7, 2022

Temp ( °F °C ) Dew Point ( °F °C ) Humidity (%) Winds ( mph kmh ) Pressure ( in mb ) Visibility ( mi km ) Precip ( " mm )
12:53 am 00:53 Clear 42 5.6 40 4.4 92 92 Calm 30.48 1032 9 14 0.00 0.00
1:58 am 01:58 Clear with Mist and Fog 41 5 40 4.4 96 96 Calm 30.48 1032 2 2 0.00 0.00
2:03 am 02:03 Clear with Mist and Fog 39 3.9 38 3.3 96 96 Calm 30.49 1033 1 1 0.00 0.00
2:09 am 02:09 Clear with Mist and Fog 42 5.6 39 3.9 89 89 Calm 30.47 1032 2 3 0.00 0.00
2:17 am 02:17 Clear 42 5.6 40 4.4 92 92 Calm 30.47 1032 7 11 0.00 0.00
2:30 am 02:30 Clear with Mist and Fog 39 3.9 39 3.9 100 100 Calm 30.49 1033 2 3 0.00 0.00
2:40 am 02:40 Clear with Mist and Fog 39 3.9 37 2.8 93 93 Calm 30.49 1033 4 6 0.00 0.00
2:53 am 02:53 Clear 40 4.4 38 3.3 93 93 S 3 6 30.48 1032 9 14 0.00 0.00
3:53 am 03:53 Clear with Mist and Fog 41 5 40 4.4 96 96 Calm 30.47 1032 5 8 0.00 0.00
4:05 am 04:05 Clear with Mist and Fog 40 4.4 39 3.9 97 97 Calm 30.49 1032 1 1 0.00 0.00
4:16 am 04:16 Clear with Fog 40 4.4 38 3.3 93 93 Calm 30.48 1032 0 0 0.00 0.00
4:35 am 04:35 Clear with Mist and Fog 38 3.3 37 2.8 97 97 WSW 3 6 30.49 1033 1 2 0.00 0.00
4:44 am 04:44 Clear with Mist and Fog 37 2.8 37 2.8 100 100 WSW 3 6 30.50 1033 2 3 0.00 0.00
4:52 am 04:52 Clear with Fog 37 2.8 36 2.2 96 96 WSW 3 6 30.48 1032 1 1 0.00 0.00
5:02 am 05:02 Clear with Fog 35 1.7 35 1.7 100 100 WSW 5 7 30.52 1033 0 0 0.00 0.00
5:09 am 05:09 Mostly Clear with Fog 36 2.2 35 1.7 96 96 WSW 6 9 30.51 1033 1 1 0.00 0.00
5:18 am 05:18 Mostly Clear with Fog 35 1.7 34 1.1 96 96 WSW 7 11 30.52 1033 0 0 0.00 0.00
5:34 am 05:34 Mostly Clear with Fog 36 2.2 34 1.1 92 92 WSW 5 7 30.51 1033 1 1 0.00 0.00
5:45 am 05:45 Mostly Clear with Fog 36 2.2 35 1.7 96 96 W 3 6 30.52 1034 0 0 0.00 0.00
5:53 am 05:53 Mostly Clear with Fog 36 2.2 35 1.7 96 96 Calm 30.48 1032 0 0 0.00 0.00
6:10 am 06:10 Mostly Clear with Fog 36 2.2 35 1.7 96 96 WSW 5 7 30.51 1033 1 1 0.00 0.00
6:31 am 06:31 Clear with Fog 36 2.2 35 1.7 96 96 WSW 6 9 30.51 1033 1 1 0.00 0.00
6:44 am 06:44 Clear with Mist and Fog 36 2.2 35 1.7 96 96 SW 3 6 30.52 1034 1 2 0.00 0.00
6:49 am 06:49 Clear with Mist and Fog 36 2 36 2 100 100 SSW 3 6 30.51 1033 2 3 0.00 0.00
6:53 am 06:53 Clear 37 2.8 36 2.2 96 96 S 3 6 30.49 1032 9 14 0.00 0.00
7:53 am 07:53 Sunny with Mist and Fog 36 2.2 35 1.7 96 96 SSW 7 11 30.51 1033 6 10 0.00 0.00
8:53 am 08:53 Sunny 42 5.6 41 5 96 96 WSW 7 11 30.50 1033 9 14 0.00 0.00
9:53 am 09:53 Sunny 47 8.3 43 6.1 86 86 SW 5 7 30.50 1033 10 16 0.00 0.00
10:53 am 10:53 Sunny 52 11.1 44 6.7 74 74 WSW 6 9 30.48 1032 10 16 0.00 0.00
11:53 am 11:53 Sunny 55 12.8 44 6.7 66 66 VRB 3 6 30.48 1032 10 16 0.00 0.00
12:53 pm 12:53 Sunny 59 15 44 6.7 58 58 SW 3 6 30.45 1031 10 16 0.00 0.00
1:53 pm 13:53 Sunny 61 16.1 45 7.2 56 56 N 5 7 30.43 1030 10 16 0.00 0.00
2:53 pm 14:53 Sunny 63 17.2 45 7.2 52 52 Calm 30.41 1030 10 16 0.00 0.00
3:53 pm 15:53 Sunny 64 17.8 45 7.2 50 50 NE 5 7 30.39 1029 10 16 0.00 0.00
4:53 pm 16:53 Sunny 64 17.8 43 6.1 46 46 VRB 3 6 30.39 1029 10 16 0.00 0.00
5:53 pm 17:53 Sunny 62 16.7 43 6.1 50 50 Calm 30.39 1029 10 16 0.00 0.00
6:53 pm 18:53 Sunny 58 14.4 42 5.6 55 55 Calm 30.39 1029 10 16 0.00 0.00
7:53 pm 19:53 Clear 52 11.1 43 6.1 71 71 SE 3 6 30.41 1030 10 16 0.00 0.00
8:53 pm 20:53 Clear 52 11.1 43 6.1 71 71 ESE 6 9 30.40 1029 10 16 0.00 0.00
9:53 pm 21:53 Clear 50 10 42 5.6 74 74 ESE 7 11 30.39 1029 10 16 0.00 0.00
10:53 pm 22:53 Clear 46 7.8 40 4.4 79 79 SSE 6 9 30.39 1029 10 16 0.00 0.00
11:53 pm 23:53 Clear 42 5.6 40 4.4 92 92 W 5 7 30.39 1029 10 16 0.00 0.00

Powered by AerisWeather